[[{"header":{"parameterUnit":"m.s-1","parameterCategory":1,"la1":30.2991,"la2":30.254,"lo1":-89.0895,"lo2":-89.0444,"dy":0.0017,"dx":0.0017,"nx":28,"ny":28,"refTime":"2023-08-05T03:00:00:Z","depth":0,"parameterNumber":2,"parameterNumberName":"U-component_of_WINDS"},"data":[0,0,0,0,0,0,0,0,0,0,0,0,0,0,0,0,0,0,0,0,0,0,0,0,0,0,0,0,0,0,0,0,0,0,0,0,0,0,0,0,0,0,0,0,0,0,0,0,0,0,0,0,0,0,0,0,0,0,1.8598,1.8599,0,1.8729,1.8731,1.8732,1.8742,1.8741,1.8739,1.8738,1.8877,1.8882,1.8887,0,0,0,0,0,0,0,0,0,0,0,0,0,1.8359,1.8363,1.8597,1.8599,1.8601,1.8729,1.8731,1.8732,1.8742,1.8741,1.8739,1.8737,1.8875,1.8881,1.8887,0,0,0,0,0,0,0,0,0,0,0,0,0,1.8474,1.8365,1.8597,1.8621,1.8624,1.8728,1.8731,1.8733,1.8743,1.874,1.8738,1.8736,1.8873,1.8881,1.8888,1.8979,0,0,1.8911,1.8915,0,0,0,0,0,0,0,0,1.8467,1.8483,1.8616,1.8619,1.8624,1.8717,1.8698,1.8815,1.8743,1.8698,1.8738,1.8735,1.8826,1.8837,1.8867,1.8985,1.8991,1.8912,1.8917,1.892,1.8922,0,0,0,0,0,0,0,1.8459,1.8477,1.865,1.8618,1.8623,1.8626,1.864,1.872,1.8773,1.8702,1.8703,1.8718,1.8827,1.8859,1.887,1.8993,1.8912,1.8919,1.8923,1.8926,1.9193,1.9195,0,0,0,0,0,0,1.8446,1.847,1.8645,1.8654,1.8538,1.8633,1.8648,1.8689,1.8772,1.8782,1.872,1.8718,1.8847,1.8861,1.8875,1.8986,1.892,1.8927,1.8931,1.919,1.9193,1.9196,0,0,0,0,0,0,1.8441,1.8462,1.864,1.8562,1.8585,1.8639,1.8685,1.8693,1.8725,1.8785,1.8795,1.8742,1.8846,1.8864,1.8952,1.8991,1.893,1.8937,1.9187,1.9191,1.9195,1.9209,0,0,0,0,0,0,1.8434,1.846,1.8494,1.8563,1.8589,1.8714,1.8687,1.8697,1.8737,1.8736,1.8809,1.8819,1.8846,1.8941,1.896,1.9,1.8943,1.9184,1.9189,1.9193,1.9205,1.9212,1.9219,0,0,0,0,0,1.8426,1.8493,1.8495,1.8516,1.8633,1.8716,1.8732,1.876,1.874,1.8775,1.8814,1.8817,1.8984,1.895,1.8971,1.9014,1.9182,1.9188,1.9193,1.9202,1.9211,1.9219,0,0,0,0,0,0,1.8428,1.8503,1.8506,1.8598,1.865,1.8718,1.8763,1.8769,1.8829,1.8826,1.886,1.8876,1.8963,1.8998,1.8959,1.9107,1.9081,1.9091,1.908,1.9089,1.9096,1.9085,1.8949,0,0,0,0,0,1.844,1.85,1.8562,1.8637,1.8664,1.8709,1.8746,1.8763,1.882,1.8843,1.8888,1.8944,1.9009,1.9051,1.9115,1.921,1.9226,1.9251,1.9258,1.9263,1.9271,1.9324,1.9335,1.9215,1.9215,1.9215,0,0,1.8464,1.8512,1.8548,1.8639,1.8682,1.8745,1.8727,1.8795,1.8842,1.8854,1.8939,1.8974,1.9039,1.9131,1.9174,1.9163,1.9308,1.927,1.9274,1.928,1.9331,1.9343,1.9353,1.9219,1.9218,1.9217,0,0,1.8539,1.8581,1.8648,1.8691,1.8756,1.8786,1.8802,1.8869,1.8892,1.8978,1.8988,1.9046,1.9157,1.9203,1.924,1.9334,1.9338,1.9354,1.9389,1.9441,1.945,1.9459,1.9491,1.9503,1.9362,1.9362,1.9362,0,1.856,1.8654,1.8682,1.8749,1.8789,1.8801,1.887,1.8911,1.8994,1.9022,1.9008,1.9148,1.9192,1.9295,1.9318,1.9348,1.9368,1.9345,1.9446,1.9455,1.9464,1.9495,1.9507,1.9363,1.9363,1.9363,1.9363,0,1.8678,1.8743,1.8789,1.8867,1.8913,1.898,1.902,1.9063,1.9076,1.9108,1.9196,1.925,1.9324,1.935,1.9364,1.9455,1.9446,1.9439,1.9414,1.9476,1.9506,1.9519,1.9365,1.9365,1.9364,1.9364,0,0,1.8757,1.885,1.8866,1.8902,1.8974,1.9026,1.9095,1.9166,1.9202,1.9259,1.9318,1.9412,1.9406,1.9449,1.9469,1.9514,1.9584,1.9502,1.9504,1.9514,1.9686,1.969,1.9703,1.9587,1.959,1.9592,1.968,0,1.884,1.896,1.8988,1.9092,1.9153,1.9166,1.9226,1.9277,1.9309,1.9366,1.9402,1.9467,1.9455,1.948,1.9526,1.9565,1.9618,1.956,1.9643,1.9645,1.9624,1.9719,1.9724,1.9805,1.9693,1.9695,1.9696,0,1.8952,1.901,1.9119,1.9184,1.9211,1.9264,1.9331,1.9386,1.9445,1.9465,1.9513,1.9528,1.9601,1.9573,1.9675,1.9634,1.967,1.9695,1.9699,1.9707,1.9673,1.9729,1.9831,1.9843,1.9715,1.9714,1.9712,0,1.8997,1.9104,1.9183,1.9213,1.9291,1.9328,1.9362,1.9419,1.946,1.952,1.9547,1.9615,1.9653,1.9706,1.9739,1.9716,1.9838,1.9813,1.9857,1.9856,1.9881,1.9879,1.9989,1.9906,1.9906,1.9906,1.9905,0,1.9086,1.9152,1.9204,1.9253,1.9328,1.936,1.9434,1.9469,1.952,1.9576,1.9593,1.9646,1.9687,1.9746,1.9774,1.9853,1.9871,1.9889,1.9895,1.9887,1.9884,1.991,1.9905,1.9909,1.9908,1.9908,1.9907,0,1.9149,1.9186,1.9273,1.934,1.9358,1.9411,1.9468,1.9516,1.9549,1.962,1.9638,1.9689,1.976,1.9799,1.9888,1.9906,1.9995,1.9999,1.9974,1.9976,2.0018,2.0013,2.0148,2.0167,2.0072,2.0073,2.0073,0,1.9202,1.9254,1.9325,1.9364,1.9398,1.946,1.9502,1.9536,1.9579,1.9651,1.9691,1.9762,1.982,1.9932,1.9978,2.0046,2.0051,2.0094,2.0061,2.0051,2.005,2.0046,2.0051,2.0099,2.01,2.01,2.0101,0,1.9293,1.9309,1.9367,1.9433,1.9482,1.9536,1.9589,1.962,1.9664,1.9711,1.9783,1.9828,1.9918,1.9988,2.006,2.0097,2.0106,2.0111,2.0124,2.0116,2.0099,2.0107,1.9988,2.0107,2.0107,2.0106,2.0106,2.0106,1.9352,1.9398,1.9455,1.952,1.9564,1.9614,1.9662,1.97,1.976,1.9835,1.9852,1.9927,1.9986,2.0083,2.0122,2.0182,2.0174,2.0194,2.0199,2.0203,2.0204,2.009,2.0196,2.0195,2.0195,2.0195,2.0195,0,1.9442,1.948,1.9539,1.9613,1.9664,1.9668,1.9728,1.9771,1.9836,1.989,1.9947,2.0029,2.0097,2.0149,2.0219,2.0257,2.0263,2.0274,2.0271,2.0279,2.0207,2.0188,2.0268,2.0268,2.0268,2.0268,2.0268,2.0268,1.9495,1.9572,1.9595,1.9695,1.9733,1.9806,1.9839,1.9885,1.9928,2.0019,2.0075,2.0108,2.0161,2.0235,2.0298,2.0312,2.0336,2.0347,2.0361,2.0292,2.0284,2.0277,2.0259,2.0352,2.0352,2.0427,2.0428,2.0428]},{"header":{"parameterUnit":"m.s-1","parameterCategory":1,"la1":30.2991,"la2":30.254,"lo1":-89.0895,"lo2":-89.0444,"dy":0.0017,"dx":0.0017,"nx":28,"ny":28,"refTime":"2023-08-05T03:00:00:Z","depth":0,"parameterNumber":3,"parameterNumberName":"V-component_of_WINDS"},"data":[0,0,0,0,0,0,0,0,0,0,0,0,0,0,0,0,0,0,0,0,0,0,0,0,0,0,0,0,0,0,0,0,0,0,0,0,0,0,0,0,0,0,0,0,0,0,0,0,0,0,0,0,0,0,0,0,0,0,4.5682,4.5682,0,4.5671,4.5671,4.5671,4.5653,4.5652,4.5652,4.5652,4.5638,4.5638,4.5638,0,0,0,0,0,0,0,0,0,0,0,0,0,4.5682,4.5682,4.5682,4.5682,4.5682,4.5671,4.5671,4.5671,4.5653,4.5652,4.5652,4.5651,4.5638,4.5638,4.5638,0,0,0,0,0,0,0,0,0,0,0,0,0,4.5678,4.5682,4.5682,4.5671,4.567,4.5671,4.5671,4.5671,4.5653,4.5652,4.5652,4.5651,4.5638,4.5638,4.5638,4.5648,0,0,4.5638,4.5638,0,0,0,0,0,0,0,0,4.5678,4.5678,4.5673,4.5672,4.5671,4.5663,4.5666,4.5663,4.5653,4.5659,4.5652,4.5651,4.5647,4.5646,4.5645,4.5648,4.5647,4.5638,4.5638,4.5638,4.5638,0,0,0,0,0,0,0,4.5678,4.5678,4.5678,4.5673,4.5672,4.5666,4.5665,4.5666,4.5656,4.5659,4.5657,4.5656,4.5646,4.5645,4.5645,4.5647,4.5638,4.5638,4.5638,4.5638,4.5654,4.5654,0,0,0,0,0,0,4.5681,4.5679,4.5678,4.5677,4.5673,4.5666,4.5665,4.5666,4.5656,4.5654,4.5657,4.5656,4.5646,4.5645,4.5644,4.5653,4.5638,4.5638,4.5638,4.5653,4.5654,4.5654,0,0,0,0,0,0,4.5681,4.5681,4.5678,4.5678,4.5677,4.5667,4.5668,4.5666,4.5665,4.5655,4.5652,4.5658,4.5645,4.5644,4.5647,4.5652,4.5638,4.5638,4.5653,4.5654,4.5654,4.5673,0,0,0,0,0,0,4.5681,4.5681,4.5686,4.5678,4.5677,4.5683,4.5668,4.5666,4.5665,4.5664,4.5655,4.5653,4.5645,4.5647,4.5647,4.5652,4.5638,4.5652,4.5653,4.5654,4.5671,4.5674,4.5676,0,0,0,0,0,4.5681,4.5692,4.5686,4.5686,4.5683,4.5683,4.5682,4.5673,4.5666,4.567,4.5663,4.5653,4.5652,4.5647,4.5647,4.5652,4.5652,4.5653,4.5654,4.567,4.5673,4.5676,0,0,0,0,0,0,4.57,4.569,4.5684,4.5693,4.5689,4.568,4.5685,4.5677,4.5674,4.5673,4.566,4.5659,4.5662,4.5658,4.5653,4.566,4.565,4.5651,4.5663,4.5666,4.5668,4.5668,4.5638,0,0,0,0,0,4.5706,4.5708,4.5699,4.5707,4.5705,4.5695,4.5695,4.5688,4.5683,4.5681,4.5674,4.5669,4.5667,4.5666,4.5664,4.5671,4.5667,4.5674,4.5676,4.5678,4.5679,4.5679,4.5681,4.5658,4.5658,4.5658,0,0,4.5716,4.5711,4.5713,4.571,4.5707,4.5707,4.5694,4.5696,4.5696,4.5681,4.5683,4.5678,4.5671,4.5675,4.5676,4.5671,4.5684,4.5679,4.5681,4.568,4.568,4.5683,4.5685,4.5658,4.5658,4.5658,0,0,4.5736,4.5734,4.5739,4.5735,4.5729,4.5722,4.5724,4.5715,4.5711,4.5713,4.5701,4.57,4.5698,4.5693,4.569,4.5705,4.5696,4.5705,4.5716,4.5717,4.5719,4.572,4.5724,4.5725,4.5706,4.5706,4.5706,0,4.575,4.5752,4.5743,4.5745,4.5743,4.573,4.5734,4.573,4.5724,4.5722,4.5717,4.5712,4.5706,4.5708,4.5711,4.571,4.5709,4.5706,4.5719,4.5721,4.5722,4.5725,4.5727,4.5707,4.5707,4.5707,4.5707,0,4.5768,4.5769,4.5774,4.5768,4.5767,4.577,4.576,4.5759,4.5752,4.5745,4.5745,4.5738,4.5733,4.5733,4.5726,4.5733,4.5729,4.5722,4.5712,4.5725,4.5728,4.5729,4.5708,4.5708,4.5708,4.5707,0,0,4.58,4.5788,4.579,4.5786,4.5778,4.5778,4.5779,4.5775,4.5774,4.5769,4.5769,4.5766,4.5759,4.5755,4.5747,4.5748,4.5758,4.574,4.5739,4.5742,4.5762,4.5767,4.5769,4.5752,4.5752,4.5752,4.5762,0,4.5817,4.582,4.5811,4.5815,4.5815,4.5801,4.5802,4.5796,4.579,4.5787,4.5779,4.5777,4.5768,4.5765,4.5766,4.5757,4.5761,4.5756,4.575,4.575,4.5751,4.5771,4.5776,4.5786,4.5763,4.5764,4.5764,0,4.5837,4.5834,4.5838,4.5828,4.5827,4.5829,4.5822,4.5821,4.5813,4.5808,4.5803,4.5794,4.5793,4.5783,4.578,4.5777,4.5773,4.5768,4.5769,4.5767,4.5757,4.5768,4.5789,4.579,4.5766,4.5766,4.5765,0,4.5858,4.5854,4.5856,4.5853,4.5842,4.5842,4.5837,4.5829,4.5826,4.5821,4.5818,4.5813,4.5809,4.5804,4.5792,4.5787,4.579,4.578,4.5784,4.5784,4.5784,4.5784,4.5804,4.5784,4.5784,4.5784,4.5784,0,4.5877,4.5879,4.5865,4.5866,4.5868,4.5856,4.5858,4.5851,4.5844,4.5842,4.583,4.5828,4.5814,4.581,4.58,4.5798,4.5797,4.5791,4.5789,4.5792,4.5792,4.5789,4.5787,4.5785,4.5784,4.5784,4.5784,0,4.59,4.589,4.5891,4.5879,4.5876,4.5878,4.5868,4.5867,4.5859,4.5857,4.5856,4.5843,4.5837,4.5825,4.5817,4.581,4.5809,4.5806,4.5812,4.581,4.5814,4.5813,4.5832,4.5833,4.5813,4.5814,4.5814,0,4.5912,4.5913,4.5902,4.59,4.5896,4.5893,4.589,4.5878,4.5875,4.5865,4.5865,4.5859,4.5853,4.5845,4.5834,4.5826,4.5821,4.5828,4.582,4.5822,4.5819,4.5819,4.5818,4.583,4.583,4.583,4.583,0,4.5933,4.5928,4.5925,4.5919,4.5916,4.591,4.5904,4.5903,4.5889,4.5886,4.5881,4.5876,4.5867,4.586,4.5851,4.5844,4.5834,4.5833,4.5833,4.5836,4.5839,4.5836,4.5816,4.5832,4.5832,4.5832,4.5832,4.5832,4.595,4.595,4.5942,4.5938,4.5932,4.5926,4.5925,4.5916,4.5912,4.5904,4.5897,4.5891,4.5881,4.5868,4.5861,4.5856,4.5851,4.5852,4.5852,4.5852,4.5853,4.5841,4.5854,4.5854,4.5854,4.5854,4.5854,0,4.5969,4.5963,4.596,4.5951,4.5948,4.594,4.5932,4.5929,4.5925,4.5917,4.5911,4.5904,4.5897,4.5885,4.5876,4.5874,4.5869,4.5872,4.5871,4.587,4.5858,4.5858,4.5876,4.5876,4.5876,4.5876,4.5876,4.5876,4.5979,4.5978,4.5972,4.5967,4.5961,4.5956,4.5952,4.5946,4.594,4.5932,4.5926,4.5919,4.5909,4.5899,4.5891,4.5888,4.5885,4.5889,4.5884,4.5873,4.5871,4.5869,4.5869,4.5888,4.5888,4.5895,4.5896,4.5896]}]]